| time (UTC) | temp F | wind direction | speed MPH | gust MPH | rain 1hr in | rain 24hr in | rain mn in | humidity % | barometer mb |
| 20260506034042 | 27 | 0 | 0.0 | 0.0 | 0.00 | 0.12 | 0.10 | 94 | 1015.5 |
| 20260506033544 | 27 | 0 | 0.0 | 0.0 | 0.00 | 0.12 | 0.10 | 94 | 1015.6 |
| 20260506033046 | 27 | 0 | 0.0 | 0.0 | 0.00 | 0.12 | 0.10 | 94 | 1015.6 |
| 20260506032543 | 27 | 0 | 0.0 | 0.0 | 0.00 | 0.12 | 0.10 | 94 | 1015.6 |
| 20260506032043 | 27 | 0 | 0.0 | 0.0 | 0.00 | 0.12 | 0.10 | 94 | 1015.5 |
| 20260506031545 | 27 | 0 | 0.0 | 0.0 | 0.00 | 0.12 | 0.10 | 94 | 1015.4 |
| 20260506031046 | 27 | 0 | 0.0 | 0.0 | 0.00 | 0.12 | 0.10 | 94 | 1015.3 |
| 20260506030545 | 27 | 0 | 0.0 | 0.0 | 0.00 | 0.12 | 0.10 | 94 | 1015.1 |
| 20260506030107 | 27 | 0 | 0.0 | 0.0 | 0.00 | 0.12 | 0.10 | 94 | 1014.8 |
| 20260506025544 | 27 | 0 | 0.0 | 0.0 | 0.00 | 0.30 | 0.10 | 94 | 1014.7 |
| 20260506025043 | 27 | 0 | 0.0 | 0.0 | 0.00 | 0.30 | 0.10 | 94 | 1014.5 |
| 20260506024555 | 27 | 0 | 0.0 | 0.0 | 0.00 | 0.30 | 0.10 | 94 | 1014.4 |
| 20260506024043 | 27 | 0 | 0.0 | 0.0 | 0.00 | 0.30 | 0.10 | 94 | 1014.4 |
| 20260506023544 | 27 | 0 | 0.0 | 0.0 | 0.00 | 0.30 | 0.10 | 94 | 1014.3 |
| 20260506023051 | 27 | 0 | 0.0 | 0.0 | 0.00 | 0.30 | 0.10 | 94 | 1014.3 |
| 20260506022543 | 27 | 0 | 0.0 | 0.0 | 0.00 | 0.30 | 0.10 | 94 | 1014.1 |
| 20260506022044 | 27 | 0 | 0.0 | 0.0 | 0.00 | 0.30 | 0.10 | 94 | 1014.1 |
| 20260506021559 | 27 | 0 | 0.0 | 0.0 | 0.00 | 0.30 | 0.10 | 94 | 1013.9 |
| 20260506021042 | 27 | 0 | 0.0 | 3.0 | 0.00 | 0.30 | 0.10 | 94 | 1014.0 |
| 20260506020543 | 27 | 0 | 0.0 | 4.0 | 0.00 | 0.30 | 0.10 | 94 | 1013.9 |
| 20260506020051 | 27 | 0 | 0.0 | 5.0 | 0.00 | 0.30 | 0.10 | 94 | 1013.8 |
| 20260506015547 | 27 | 0 | 1.0 | 6.0 | 0.00 | 0.33 | 0.10 | 94 | 1013.8 |
| 20260506015050 | 27 | 38 | 2.0 | 6.0 | 0.00 | 0.33 | 0.10 | 94 | 1013.8 |
| 20260506014559 | 27 | 0 | 0.0 | 0.0 | 0.00 | 0.33 | 0.10 | 94 | 1013.7 |
| 20260506014048 | 27 | 0 | 0.0 | 0.0 | 0.00 | 0.33 | 0.10 | 94 | 1013.6 |
| 20260506013548 | 27 | 0 | 0.0 | 0.0 | 0.00 | 0.33 | 0.10 | 94 | 1013.7 |
| 20260506013054 | 27 | 0 | 0.0 | 0.0 | 0.00 | 0.33 | 0.10 | 94 | 1013.6 |
| 20260506012548 | 27 | 0 | 0.0 | 4.0 | 0.00 | 0.33 | 0.10 | 93 | 1013.5 |
| 20260506012047 | 27 | 0 | 0.0 | 4.0 | 0.00 | 0.33 | 0.10 | 93 | 1013.5 |
| 20260506011547 | 28 | 38 | 0.0 | 0.0 | 0.00 | 0.33 | 0.10 | 93 | 1013.4 |
| 20260506011045 | 28 | 0 | 0.0 | 0.0 | 0.00 | 0.33 | 0.10 | 94 | 1013.5 |
| 20260506010547 | 28 | 0 | 0.0 | 2.0 | 0.00 | 0.33 | 0.10 | 94 | 1013.6 |
| 20260506005548 | 28 | 38 | 0.0 | 2.0 | 0.00 | 0.33 | 0.10 | 94 | 1013.3 |
| 20260506005047 | 28 | 0 | 0.0 | 0.0 | 0.00 | 0.33 | 0.10 | 94 | 1013.3 |
| 20260506004553 | 28 | 0 | 0.0 | 0.0 | 0.00 | 0.33 | 0.10 | 93 | 1013.3 |
| 20260506004047 | 28 | 0 | 0.0 | 0.0 | 0.00 | 0.33 | 0.10 | 94 | 1013.3 |
| 20260506003547 | 28 | 0 | 0.0 | 0.0 | 0.00 | 0.33 | 0.10 | 93 | 1013.3 |
| 20260506003051 | 28 | 0 | 0.0 | 0.0 | 0.00 | 0.33 | 0.10 | 93 | 1013.3 |
| 20260506002548 | 28 | 0 | 0.0 | 3.0 | 0.00 | 0.33 | 0.10 | 94 | 1013.3 |
| 20260506002048 | 28 | 0 | 0.0 | 4.0 | 0.00 | 0.33 | 0.10 | 94 | 1013.6 |
| 20260506001553 | 28 | 38 | 0.0 | 4.0 | 0.00 | 0.33 | 0.10 | 94 | 1013.6 |
| 20260506001048 | 28 | 0 | 0.0 | 4.0 | 0.00 | 0.33 | 0.10 | 94 | 1013.4 |
| 20260506000547 | 28 | 0 | 0.0 | 4.0 | 0.00 | 0.33 | 0.10 | 94 | 1013.4 |
| 20260506000049 | 28 | 0 | 0.0 | 6.0 | 0.00 | 0.33 | 0.10 | 94 | 1013.3 |
| 20260505235549 | 28 | 0 | 2.0 | 9.0 | 0.00 | 0.33 | 0.10 | 94 | 1013.4 |
| 20260505235048 | 28 | 38 | 2.0 | 9.0 | 0.00 | 0.33 | 0.10 | 94 | 1013.3 |
| 20260505234553 | 28 | 0 | 0.0 | 9.0 | 0.00 | 0.33 | 0.10 | 94 | 1013.4 |
| 20260505234048 | 28 | 38 | 2.0 | 9.0 | 0.00 | 0.33 | 0.10 | 94 | 1013.3 |
| 20260505233544 | 28 | 38 | 0.0 | 6.0 | 0.00 | 0.33 | 0.10 | 94 | 1013.3 |
| 20260505233059 | 28 | 38 | 2.0 | 8.0 | 0.00 | 0.33 | 0.10 | 94 | 1013.3 |
| 20260505232547 | 28 | 38 | 1.0 | 9.0 | 0.00 | 0.33 | 0.10 | 94 | 1013.2 |
| 20260505232047 | 28 | 38 | 2.0 | 9.0 | 0.00 | 0.33 | 0.10 | 94 | 1013.1 |
| 20260505231550 | 28 | 38 | 2.0 | 11.0 | 0.00 | 0.33 | 0.10 | 94 | 1013.1 |
| 20260505231046 | 28 | 38 | 2.0 | 11.0 | 0.00 | 0.33 | 0.10 | 94 | 1013.1 |
| 20260505230547 | 28 | 38 | 5.0 | 11.0 | 0.01 | 0.33 | 0.10 | 94 | 1013.1 |
| 20260505230054 | 28 | 38 | 2.0 | 9.0 | 0.01 | 0.33 | 0.10 | 94 | 1013.0 |
| 20260505225547 | 28 | 38 | 1.0 | 8.0 | 0.01 | 0.35 | 0.10 | 94 | 1012.9 |
| 20260505225048 | 28 | 0 | 0.0 | 8.0 | 0.01 | 0.35 | 0.10 | 94 | 1013.2 |
| 20260505224553 | 28 | 0 | 2.0 | 7.0 | 0.01 | 0.35 | 0.10 | 94 | 1013.2 |
| 20260505224049 | 28 | 0 | 0.0 | 8.0 | 0.01 | 0.35 | 0.10 | 94 | 1013.1 |
| 20260505223547 | 28 | 0 | 2.0 | 8.0 | 0.01 | 0.35 | 0.10 | 94 | 1013.2 |
| 20260505223057 | 28 | 0 | 2.0 | 12.0 | 0.01 | 0.35 | 0.10 | 94 | 1013.3 |
| 20260505222547 | 28 | 0 | 1.0 | 12.0 | 0.01 | 0.35 | 0.10 | 94 | 1012.9 |
| 20260505222047 | 28 | 38 | 3.0 | 15.0 | 0.02 | 0.35 | 0.10 | 94 | 1013.0 |
| 20260505221601 | 29 | 38 | 4.0 | 15.0 | 0.02 | 0.35 | 0.10 | 94 | 1012.7 |
| 20260505221050 | 29 | 38 | 5.0 | 13.0 | 0.02 | 0.35 | 0.10 | 93 | 1012.3 |
| 20260505220548 | 29 | 38 | 7.0 | 13.0 | 0.01 | 0.34 | 0.09 | 93 | 1012.3 |
| 20260505220050 | 29 | 38 | 5.0 | 12.0 | 0.02 | 0.34 | 0.09 | 93 | 1012.5 |
| 20260505215548 | 30 | 38 | 1.0 | 10.0 | 0.02 | 0.34 | 0.09 | 93 | 1013.0 |
| 20260505215047 | 30 | 38 | 3.0 | 11.0 | 0.02 | 0.34 | 0.09 | 93 | 1012.8 |
| 20260505214555 | 31 | 38 | 3.0 | 11.0 | 0.02 | 0.34 | 0.09 | 94 | 1012.4 |
| 20260505214050 | 31 | 38 | 2.0 | 10.0 | 0.03 | 0.34 | 0.09 | 94 | 1012.2 |
| 20260505213547 | 32 | 51 | 4.0 | 11.0 | 0.03 | 0.34 | 0.09 | 94 | 1012.1 |
| 20260505213054 | 32 | 55 | 5.0 | 11.0 | 0.03 | 0.34 | 0.09 | 94 | 1012.0 |
| 20260505212547 | 32 | 63 | 1.0 | 8.0 | 0.03 | 0.34 | 0.09 | 94 | 1012.3 |
| 20260505212047 | 32 | 0 | 1.0 | 7.0 | 0.02 | 0.33 | 0.08 | 94 | 1012.3 |
| 20260505211555 | 33 | 51 | 1.0 | 6.0 | 0.02 | 0.33 | 0.08 | 94 | 1012.5 |
| 20260505211047 | 33 | 0 | 3.0 | 6.0 | 0.02 | 0.33 | 0.08 | 94 | 1012.6 |
| 20260505210546 | 33 | 0 | 2.0 | 5.0 | 0.02 | 0.33 | 0.08 | 94 | 1012.8 |
| 20260505205548 | 33 | 0 | 0.0 | 4.0 | 0.01 | 0.32 | 0.07 | 94 | 1012.8 |
| 20260505205047 | 32 | 0 | 0.0 | 5.0 | 0.02 | 0.32 | 0.07 | 94 | 1012.7 |
| 20260505204551 | 32 | 67 | 1.0 | 9.0 | 0.02 | 0.32 | 0.07 | 94 | 1012.8 |
| 20260505204046 | 32 | 51 | 3.0 | 9.0 | 0.01 | 0.31 | 0.06 | 94 | 1012.9 |
| 20260505203546 | 32 | 49 | 3.0 | 7.0 | 0.01 | 0.31 | 0.06 | 94 | 1013.0 |
| 20260505203057 | 32 | 44 | 1.0 | 7.0 | 0.01 | 0.31 | 0.06 | 94 | 1013.2 |
| 20260505202546 | 32 | 38 | 3.0 | 7.0 | 0.01 | 0.31 | 0.06 | 94 | 1013.2 |
| 20260505202047 | 32 | 49 | 2.0 | 5.0 | 0.01 | 0.31 | 0.06 | 94 | 1013.3 |
| 20260505201555 | 32 | 0 | 0.0 | 5.0 | 0.02 | 0.31 | 0.06 | 94 | 1013.2 |
| 20260505201047 | 32 | 49 | 0.0 | 7.0 | 0.02 | 0.31 | 0.06 | 94 | 1013.6 |
| 20260505200548 | 32 | 0 | 0.0 | 7.0 | 0.02 | 0.31 | 0.06 | 94 | 1013.5 |
| 20260505200051 | 32 | 0 | 0.0 | 4.0 | 0.02 | 0.31 | 0.06 | 94 | 1013.5 |
| 20260505195547 | 32 | 0 | 1.0 | 4.0 | 0.03 | 0.31 | 0.06 | 94 | 1013.5 |
| 20260505195047 | 32 | 0 | 0.0 | 5.0 | 0.02 | 0.30 | 0.05 | 94 | 1013.6 |
| 20260505194558 | 32 | 0 | 0.0 | 9.0 | 0.02 | 0.30 | 0.05 | 94 | 1013.6 |
| 20260505194047 | 32 | 49 | 1.0 | 9.0 | 0.02 | 0.30 | 0.05 | 94 | 1013.3 |
| 20260505193546 | 32 | 49 | 3.0 | 7.0 | 0.02 | 0.30 | 0.05 | 94 | 1013.4 |
| 20260505193105 | 32 | 48 | 1.0 | 7.0 | 0.02 | 0.30 | 0.05 | 94 | 1013.5 |
| 20260505192547 | 32 | 50 | 2.0 | 7.0 | 0.02 | 0.30 | 0.05 | 94 | 1013.6 |
| 20260505192048 | 32 | 46 | 3.0 | 9.0 | 0.02 | 0.30 | 0.05 | 94 | 1013.6 |
| 20260505191559 | 32 | 0 | 3.0 | 9.0 | 0.01 | 0.29 | 0.04 | 94 | 1013.6 |
| 20260505191048 | 32 | 50 | 0.0 | 10.0 | 0.01 | 0.29 | 0.04 | 94 | 1013.5 |
| 20260505190548 | 32 | 51 | 1.0 | 10.0 | 0.01 | 0.29 | 0.04 | 94 | 1013.4 |
| 20260505190047 | 33 | 46 | 0.0 | 4.0 | 0.01 | 0.29 | 0.04 | 94 | 1013.3 |
| 20260505185547 | 32 | 0 | 0.0 | 4.0 | 0.01 | 0.28 | 0.03 | 94 | 1013.5 |
| 20260505185047 | 32 | 65 | 1.0 | 5.0 | 0.01 | 0.28 | 0.03 | 94 | 1013.5 |
| 20260505184556 | 32 | 51 | 1.0 | 5.0 | 0.01 | 0.28 | 0.03 | 94 | 1013.7 |
| 20260505184047 | 32 | 52 | 1.0 | 5.0 | 0.01 | 0.28 | 0.03 | 94 | 1013.5 |
| 20260505183547 | 32 | 0 | 1.0 | 5.0 | 0.01 | 0.28 | 0.03 | 94 | 1013.7 |
| 20260505183052 | 32 | 0 | 2.0 | 5.0 | 0.01 | 0.28 | 0.03 | 94 | 1013.8 |
| 20260505182544 | 32 | 0 | 1.0 | 4.0 | 0.01 | 0.28 | 0.03 | 94 | 1013.7 |
| 20260505182047 | 32 | 45 | 1.0 | 4.0 | 0.01 | 0.28 | 0.03 | 94 | 1013.8 |
| 20260505181553 | 32 | 0 | 0.0 | 0.0 | 0.01 | 0.28 | 0.03 | 94 | 1014.1 |
| 20260505181046 | 32 | 0 | 0.0 | 5.0 | 0.01 | 0.28 | 0.03 | 94 | 1014.2 |
| 20260505180546 | 32 | 0 | 2.0 | 6.0 | 0.01 | 0.28 | 0.03 | 94 | 1014.1 |
| 20260505180051 | 32 | 0 | 1.0 | 6.0 | 0.01 | 0.28 | 0.03 | 94 | 1014.2 |
| 20260505175548 | 32 | 0 | 1.0 | 6.0 | 0.00 | 0.27 | 0.02 | 94 | 1014.1 |
| 20260505175048 | 32 | 0 | 0.0 | 5.0 | 0.00 | 0.27 | 0.02 | 94 | 1014.0 |
| 20260505174553 | 32 | 49 | 0.0 | 5.0 | 0.00 | 0.27 | 0.02 | 94 | 1014.1 |
| 20260505174049 | 32 | 0 | 0.0 | 0.0 | 0.01 | 0.27 | 0.02 | 94 | 1014.3 |
| 20260505173547 | 31 | 0 | 0.0 | 5.0 | 0.01 | 0.27 | 0.02 | 94 | 1014.3 |
| 20260505173053 | 31 | 0 | 0.0 | 7.0 | 0.01 | 0.27 | 0.02 | 94 | 1014.4 |
| 20260505172547 | 31 | 49 | 3.0 | 7.0 | 0.01 | 0.27 | 0.02 | 94 | 1014.3 |
| 20260505172048 | 32 | 49 | 2.0 | 5.0 | 0.01 | 0.27 | 0.02 | 94 | 1014.5 |
| 20260505171554 | 32 | 0 | 0.0 | 5.0 | 0.01 | 0.27 | 0.02 | 94 | 1014.7 |
| 20260505171048 | 32 | 0 | 0.0 | 5.0 | 0.01 | 0.27 | 0.02 | 94 | 1014.6 |
| 20260505170549 | 32 | 0 | 0.0 | 4.0 | 0.01 | 0.27 | 0.02 | 94 | 1014.6 |
| 20260505170056 | 32 | 0 | 0.0 | 6.0 | 0.01 | 0.27 | 0.02 | 94 | 1014.7 |
| 20260505165548 | 32 | 49 | 2.0 | 6.0 | 0.01 | 0.27 | 0.02 | 94 | 1014.6 |
| 20260505165047 | 32 | 0 | 0.0 | 9.0 | 0.01 | 0.27 | 0.02 | 94 | 1014.6 |
| 20260505164553 | 32 | 0 | 2.0 | 9.0 | 0.01 | 0.27 | 0.02 | 94 | 1014.6 |
| 20260505164048 | 32 | 0 | 0.0 | 3.0 | 0.00 | 0.26 | 0.01 | 94 | 1014.5 |
| 20260505163548 | 32 | 0 | 1.0 | 3.0 | 0.00 | 0.26 | 0.01 | 94 | 1014.5 |
| 20260505163052 | 32 | 0 | 0.0 | 2.0 | 0.00 | 0.26 | 0.01 | 94 | 1014.6 |
| 20260505162548 | 32 | 0 | 0.0 | 6.0 | 0.00 | 0.26 | 0.01 | 94 | 1014.6 |
| 20260505162047 | 32 | 0 | 0.0 | 6.0 | 0.00 | 0.26 | 0.01 | 94 | 1014.6 |
| 20260505161559 | 32 | 0 | 0.0 | 3.0 | 0.00 | 0.26 | 0.01 | 94 | 1014.6 |
| 20260505161045 | 32 | 0 | 0.0 | 4.0 | 0.00 | 0.26 | 0.01 | 94 | 1014.7 |
| 20260505160547 | 31 | 0 | 0.0 | 4.0 | 0.00 | 0.26 | 0.01 | 94 | 1014.7 |
| 20260505153104 | 31 | 0 | 0.0 | 0.0 | 0.00 | 0.26 | 0.01 | 94 | 1014.9 |
| 20260505152548 | 31 | 0 | 0.0 | 0.0 | 0.00 | 0.26 | 0.01 | 94 | 1015.0 |
| 20260505152046 | 31 | 0 | 0.0 | 0.0 | 0.00 | 0.26 | 0.01 | 94 | 1015.0 |
| 20260505151554 | 31 | 0 | 0.0 | 0.0 | 0.00 | 0.26 | 0.01 | 94 | 1015.0 |
| 20260505151050 | 31 | 0 | 0.0 | 0.0 | 0.00 | 0.26 | 0.01 | 94 | 1015.1 |
| 20260505150546 | 31 | 0 | 0.0 | 0.0 | 0.00 | 0.26 | 0.01 | 94 | 1015.1 |
| 20260505140546 | 30 | 45 | 2.0 | 6.0 | 0.00 | 0.26 | 0.01 | 94 | 1015.2 |
| 20260505130116 | 30 | 0 | 0.0 | 3.0 | 0.00 | 0.26 | 0.01 | 94 | 1014.7 |
| 20260505124608 | 30 | 0 | 2.0 | 6.0 | 0.00 | 0.26 | 0.01 | 94 | 1014.6 |
| 20260505124049 | 31 | 53 | 0.0 | 4.0 | 0.00 | 0.26 | 0.01 | 94 | 1014.6 |
| 20260505123552 | 31 | 0 | 1.0 | 5.0 | 0.00 | 0.26 | 0.01 | 94 | 1014.6 |
| 20260505123115 | 31 | 53 | 0.0 | 6.0 | 0.00 | 0.26 | 0.01 | 94 | 1014.6 |
| 20260505122549 | 31 | 54 | 0.0 | 11.0 | 0.00 | 0.26 | 0.01 | 94 | 1014.4 |
| 20260505122047 | 31 | 0 | 2.0 | 11.0 | 0.00 | 0.26 | 0.01 | 94 | 1014.3 |
| 20260505121552 | 31 | 62 | 3.0 | 11.0 | 0.00 | 0.26 | 0.01 | 94 | 1014.4 |
| 20260505121052 | 31 | 0 | 2.0 | 10.0 | 0.00 | 0.26 | 0.01 | 94 | 1014.5 |
| 20260505120548 | 31 | 0 | 4.0 | 10.0 | 0.00 | 0.26 | 0.01 | 94 | 1014.4 |
| 20260505115546 | 32 | 0 | 0.0 | 5.0 | 0.00 | 0.26 | 0.01 | 94 | 1014.3 |
| 20260505115047 | 32 | 0 | 2.0 | 6.0 | 0.00 | 0.26 | 0.01 | 94 | 1014.3 |
| 20260505114552 | 32 | 0 | 3.0 | 6.0 | 0.00 | 0.26 | 0.01 | 94 | 1014.2 |
| 20260505114047 | 32 | 41 | 1.0 | 6.0 | 0.00 | 0.26 | 0.01 | 94 | 1014.2 |
| 20260505113552 | 33 | 0 | 0.0 | 0.0 | 0.00 | 0.26 | 0.01 | 94 | 1014.3 |
| 20260505113059 | 33 | 0 | 0.0 | 0.0 | 0.00 | 0.26 | 0.01 | 94 | 1014.2 |
| 20260505112548 | 33 | 0 | 0.0 | 0.0 | 0.00 | 0.26 | 0.01 | 94 | 1014.1 |
| 20260505112048 | 33 | 0 | 0.0 | 0.0 | 0.00 | 0.26 | 0.01 | 94 | 1014.0 |
| 20260505111553 | 33 | 0 | 0.0 | 5.0 | 0.00 | 0.26 | 0.01 | 94 | 1014.1 |
| 20260505111048 | 33 | 0 | 0.0 | 6.0 | 0.00 | 0.26 | 0.01 | 94 | 1014.2 |
| 20260505110547 | 33 | 38 | 3.0 | 8.0 | 0.00 | 0.26 | 0.01 | 94 | 1014.1 |
| 20260505102148 | 34 | 53 | 6.0 | 14.0 | 0.00 | 0.26 | 0.01 | 94 | 1013.8 |
| 20260505101554 | 34 | 54 | 4.0 | 14.0 | 0.00 | 0.26 | 0.01 | 94 | 1013.8 |
| 20260505101047 | 34 | 58 | 0.0 | 11.0 | 0.00 | 0.26 | 0.01 | 94 | 1013.8 |
| 20260505100547 | 34 | 55 | 2.0 | 11.0 | 0.00 | 0.26 | 0.01 | 94 | 1013.9 |
| 20260505100053 | 34 | 53 | 5.0 | 10.0 | 0.00 | 0.26 | 0.01 | 94 | 1013.9 |
| 20260505095544 | 34 | 360 | 2.0 | 14.0 | 0.00 | 0.26 | 0.01 | 94 | 1013.9 |
| 20260505095043 | 34 | 53 | 5.0 | 14.0 | 0.00 | 0.26 | 0.01 | 94 | 1013.8 |
| 20260505094554 | 34 | 57 | 3.0 | 11.0 | 0.00 | 0.26 | 0.01 | 94 | 1013.7 |
| 20260505094043 | 35 | 34 | 2.0 | 14.0 | 0.00 | 0.26 | 0.01 | 94 | 1013.6 |
| 20260505093547 | 35 | 36 | 5.0 | 15.0 | 0.00 | 0.26 | 0.01 | 94 | 1013.7 |
| 20260505093054 | 35 | 42 | 7.0 | 15.0 | 0.00 | 0.26 | 0.01 | 94 | 1013.6 |
| 20260505092548 | 35 | 30 | 4.0 | 11.0 | 0.00 | 0.26 | 0.01 | 94 | 1013.6 |
| 20260505092048 | 36 | 32 | 5.0 | 11.0 | 0.00 | 0.26 | 0.01 | 94 | 1013.5 |
| 20260505091618 | 36 | 44 | 4.0 | 10.0 | 0.00 | 0.26 | 0.01 | 94 | 1013.6 |
| 20260505091047 | 36 | 31 | 3.0 | 10.0 | 0.00 | 0.26 | 0.01 | 94 | 1013.6 |
| 20260505090547 | 36 | 28 | 3.0 | 10.0 | 0.00 | 0.26 | 0.01 | 94 | 1013.6 |
| 20260505090109 | 37 | 26 | 2.0 | 10.0 | 0.00 | 0.26 | 0.01 | 94 | 1013.6 |
| 20260505085548 | 37 | 31 | 2.0 | 10.0 | 0.00 | 0.26 | 0.01 | 94 | 1013.6 |
| 20260505085051 | 37 | 0 | 1.0 | 10.0 | 0.00 | 0.26 | 0.01 | 94 | 1013.6 |
| 20260505084607 | 37 | 0 | 0.0 | 10.0 | 0.00 | 0.26 | 0.01 | 94 | 1013.6 |
| 20260505084047 | 37 | 0 | 2.0 | 10.0 | 0.00 | 0.26 | 0.01 | 94 | 1013.6 |
| 20260505083551 | 37 | 0 | 0.0 | 6.0 | 0.00 | 0.26 | 0.01 | 94 | 1013.6 |
| 20260505083107 | 38 | 0 | 0.0 | 7.0 | 0.00 | 0.26 | 0.01 | 94 | 1013.5 |
| 20260505082547 | 38 | 44 | 2.0 | 7.0 | 0.00 | 0.26 | 0.01 | 94 | 1013.8 |
| 20260505082047 | 39 | 53 | 3.0 | 6.0 | 0.00 | 0.26 | 0.01 | 94 | 1013.6 |
| 20260505081559 | 39 | 0 | 0.0 | 5.0 | 0.00 | 0.26 | 0.01 | 94 | 1013.7 |
| 20260505081047 | 39 | 0 | 0.0 | 0.0 | 0.00 | 0.26 | 0.01 | 94 | 1013.8 |
| 20260505080551 | 39 | 0 | 0.0 | 0.0 | 0.00 | 0.26 | 0.01 | 94 | 1013.8 |
| 20260505080059 | 39 | 0 | 0.0 | 0.0 | 0.00 | 0.26 | 0.01 | 94 | 1013.8 |
| 20260505075548 | 39 | 0 | 0.0 | 0.0 | 0.00 | 0.26 | 0.01 | 94 | 1013.8 |
| 20260505075048 | 39 | 0 | 0.0 | 0.0 | 0.00 | 0.26 | 0.01 | 94 | 1013.8 |
| 20260505074549 | 39 | 0 | 0.0 | 0.0 | 0.00 | 0.26 | 0.01 | 94 | 1013.9 |
| 20260505074048 | 39 | 0 | 0.0 | 0.0 | 0.00 | 0.26 | 0.01 | 94 | 1014.0 |
| 20260505073548 | 39 | 0 | 0.0 | 0.0 | 0.00 | 0.26 | 0.01 | 94 | 1014.1 |
| 20260505073055 | 39 | 0 | 0.0 | 0.0 | 0.00 | 0.26 | 0.01 | 94 | 1014.1 |
| 20260505072546 | 39 | 0 | 0.0 | 0.0 | 0.00 | 0.26 | 0.01 | 94 | 1014.1 |
| 20260505072046 | 39 | 0 | 0.0 | 0.0 | 0.00 | 0.26 | 0.01 | 94 | 1014.1 |
| 20260505071603 | 39 | 0 | 0.0 | 0.0 | 0.00 | 0.26 | 0.01 | 94 | 1014.1 |
| 20260505071052 | 39 | 0 | 0.0 | 0.0 | 0.00 | 0.26 | 0.01 | 94 | 1014.1 |
| 20260505070544 | 39 | 0 | 0.0 | 0.0 | 0.00 | 0.26 | 0.01 | 94 | 1014.1 |
| 20260505070052 | 38 | 0 | 0.0 | 0.0 | 0.01 | 0.26 | 0.01 | 94 | 1014.2 |
| 20260505065548 | 38 | 0 | 0.0 | 0.0 | 0.01 | 0.26 | 0.01 | 94 | 1014.0 |
| 20260505065047 | 38 | 0 | 0.0 | 0.0 | 0.01 | 0.26 | 0.01 | 94 | 1014.0 |
| 20260505064555 | 38 | 0 | 0.0 | 0.0 | 0.01 | 0.26 | 0.01 | 94 | 1014.0 |
| 20260505064051 | 38 | 0 | 0.0 | 0.0 | 0.01 | 0.26 | 0.01 | 94 | 1014.0 |
| 20260505063550 | 38 | 0 | 0.0 | 0.0 | 0.01 | 0.26 | 0.01 | 94 | 1014.1 |
| 20260505063055 | 38 | 0 | 0.0 | 0.0 | 0.01 | 0.26 | 0.01 | 94 | 1014.0 |
| 20260505062545 | 38 | 0 | 0.0 | 0.0 | 0.01 | 0.26 | 0.01 | 94 | 1013.9 |
| 20260505062047 | 38 | 0 | 0.0 | 0.0 | 0.01 | 0.26 | 0.01 | 94 | 1014.0 |
| 20260505061552 | 38 | 0 | 0.0 | 0.0 | 0.01 | 0.26 | 0.01 | 94 | 1014.0 |
| 20260505061047 | 38 | 0 | 0.0 | 0.0 | 0.01 | 0.26 | 0.01 | 94 | 1013.9 |
| 20260505060545 | 38 | 0 | 0.0 | 0.0 | 0.01 | 0.26 | 0.01 | 94 | 1014.0 |
| 20260505060058 | 38 | 0 | 0.0 | 0.0 | 0.00 | 0.25 | 0.00 | 94 | 1014.0 |
| 20260505055545 | 38 | 0 | 0.0 | 0.0 | 0.00 | 0.25 | 0.25 | 94 | 1014.1 |
| 20260505055046 | 38 | 0 | 0.0 | 0.0 | 0.00 | 0.25 | 0.25 | 93 | 1014.0 |
| 20260505054553 | 38 | 0 | 0.0 | 0.0 | 0.00 | 0.25 | 0.25 | 93 | 1014.1 |
| 20260505054044 | 38 | 0 | 0.0 | 0.0 | 0.00 | 0.25 | 0.25 | 93 | 1014.0 |
| 20260505053546 | 38 | 0 | 0.0 | 0.0 | 0.00 | 0.25 | 0.25 | 93 | 1013.8 |
| 20260505053052 | 37 | 0 | 0.0 | 0.0 | 0.00 | 0.25 | 0.25 | 93 | 1013.8 |
| 20260505052544 | 37 | 0 | 0.0 | 0.0 | 0.00 | 0.25 | 0.25 | 93 | 1013.7 |
| 20260505052044 | 37 | 0 | 0.0 | 0.0 | 0.00 | 0.25 | 0.25 | 93 | 1013.8 |
| 20260505051550 | 37 | 0 | 0.0 | 0.0 | 0.00 | 0.25 | 0.25 | 93 | 1013.8 |
| 20260505051045 | 37 | 0 | 0.0 | 0.0 | 0.00 | 0.25 | 0.25 | 93 | 1013.8 |
| 20260505050544 | 37 | 0 | 0.0 | 0.0 | 0.00 | 0.25 | 0.25 | 93 | 1013.8 |
| 20260505041555 | 37 | 0 | 0.0 | 0.0 | 0.01 | 0.25 | 0.25 | 92 | 1014.3 |
| 20260505041043 | 37 | 0 | 0.0 | 0.0 | 0.01 | 0.25 | 0.25 | 92 | 1014.5 |
| 20260505040543 | 38 | 0 | 0.0 | 0.0 | 0.01 | 0.25 | 0.25 | 92 | 1014.6 |
| 20260505040058 | 38 | 0 | 0.0 | 0.0 | 0.02 | 0.25 | 0.25 | 92 | 1014.6 |
| 20260505035544 | 38 | 0 | 0.0 | 0.0 | 0.03 | 0.25 | 0.25 | 92 | 1014.6 |
| 20260505035043 | 38 | 0 | 0.0 | 0.0 | 0.05 | 0.25 | 0.25 | 92 | 1014.6 |
| 20260505034550 | 38 | 0 | 0.0 | 0.0 | 0.07 | 0.25 | 0.25 | 92 | 1014.5 |